Weather History for KOLM - August, 2013

Change the Weather History Date:

Tuesday, August 13, 2013

  Actual Average Record
Temperature  
Mean Temperature 66 °F 64 °F  
Max Temperature 83 °F 78 °F 94 °F (1967)
Min Temperature 49 °F 51 °F 38 °F (1972)
Degree Days  
Heating Degree Days 0 2  
Month to date heating degree days 8 26  
Since 1 June heating degree days 201 294  
Since 1 July heating degree days 65 106  
Cooling Degree Days 1 2  
Month to date cooling degree days 23 26  
Year to date cooling degree days 87 83  
Since 1 June cooling degree days 85 80  
Growing Degree Days 15 (Base 50)    
Moisture  
Dew Point 51 °F    
Average Humidity 64    
Maximum Humidity 96    
Minimum Humidity 31    
Precipitation  
Precipitation 0.00 in 0.03 in 0.57 in (2014)
Month to date precipitation 0.09 0.25  
Year to date precipitation 21.51 26.91  
Sea Level Pressure  
Sea Level Pressure 30.05 in    
Wind  
Wind Speed 3 mph (NE)    
Max Wind Speed 9 mph    
Max Gust Speed 13 mph    
Visibility 9 miles    
Events Fog    
T = Trace of Precipitation, MM = Missing Value Source: NWS Daily Summary

Daily Weather History Graph

Daily Weather History Graph

Search for Another Location

Airport or City:

Trip Planner

Search our weather history database for the weather conditions in past years. The results will help you decide how hot, cold, wet, or windy it might be!

Date:

Astronomy

Aug. 13, 2013 Rise Set
Actual Time 6:06 AM PDT 8:25 PM PDT
Civil Twilight 5:33 AM PDT 8:58 PM PDT
Nautical Twilight 4:51 AM PDT 9:40 PM PDT
Astronomical Twilight 4:03 AM PDT 10:27 PM PDT
Moon 1:38 PM PDT (8/13) 11:32 PM PDT (8/13)
Length of Visible Light 15h 25m
Length of Day
14h 18m
Waxing Crescent, 43% of the Moon is Illuminated
Aug 13
Waxing Crescent
Aug 14
First Quarter
Aug 20
Full
Aug 28
Last Quarter
Sep 5
New

Hourly Weather History & Observations

Time (PDT) Temp. Dew Point Humidity Pressure Visibility Wind Dir Wind Speed Gust Speed Precip Events Conditions
12:54 AM 57.0 °F 52.0 °F 83% 30.10 in 10.0 mi Calm Calm - N/A   Overcast
1:54 AM 55.9 °F 51.1 °F 84% 30.10 in 10.0 mi South 3.5 mph - N/A   Overcast
2:54 AM 55.9 °F 51.1 °F 84% 30.11 in 10.0 mi SSW 3.5 mph - N/A   Mostly Cloudy
3:54 AM 55.0 °F 51.1 °F 86% 30.11 in 10.0 mi Calm Calm - N/A   Mostly Cloudy
4:54 AM 53.1 °F 51.1 °F 93% 30.10 in 10.0 mi Calm Calm - N/A   Scattered Clouds
5:54 AM 50.0 °F 48.9 °F 96% 30.11 in 10.0 mi Calm Calm - N/A   Clear
6:12 AM 48.9 °F 48.0 °F 97% 30.11 in 1.2 mi Calm Calm - N/A   Clear
6:19 AM 48.9 °F 48.0 °F 97% 30.11 in 0.5 mi Calm Calm - N/A Fog Fog
6:23 AM 48.9 °F 48.0 °F 97% 30.11 in 1.5 mi Calm Calm - N/A   Clear
6:29 AM 50.0 °F 48.9 °F 96% 30.11 in 3.0 mi Calm Calm - N/A   Clear
6:54 AM 51.1 °F 50.0 °F 96% 30.12 in 8.0 mi Calm Calm - N/A   Clear
7:54 AM 55.0 °F 52.0 °F 89% 30.12 in 10.0 mi Calm Calm - N/A   Clear
8:54 AM 61.0 °F 52.0 °F 72% 30.12 in 10.0 mi Calm Calm - N/A   Clear
9:54 AM 64.9 °F 51.1 °F 61% 30.11 in 10.0 mi Calm Calm - N/A   Clear
10:54 AM 68.0 °F 51.1 °F 55% 30.11 in 10.0 mi Variable 4.6 mph - N/A   Partly Cloudy
11:54 AM 72.0 °F 52.0 °F 49% 30.09 in 10.0 mi NNE 6.9 mph - N/A   Partly Cloudy
12:54 PM 73.0 °F 52.0 °F 48% 30.07 in 10.0 mi NNW 4.6 mph - N/A   Partly Cloudy
1:54 PM 75.9 °F 52.0 °F 43% 30.06 in 10.0 mi SSE 4.6 mph - N/A   Clear
2:54 PM 79.0 °F 52.0 °F 39% 30.03 in 10.0 mi ENE 6.9 mph - N/A   Clear
3:54 PM 80.1 °F 48.0 °F 32% 30.01 in 10.0 mi Variable 5.8 mph - N/A   Clear
4:54 PM 82.0 °F 48.0 °F 30% 29.99 in 10.0 mi Variable 3.5 mph - N/A   Clear
5:54 PM 81.0 °F 50.0 °F 34% 29.98 in 10.0 mi ENE 5.8 mph - N/A   Clear
6:54 PM 79.0 °F 52.0 °F 39% 29.95 in 10.0 mi NNE 6.9 mph - N/A   Clear
7:54 PM 77.0 °F 52.0 °F 42% 29.94 in 10.0 mi NE 4.6 mph - N/A   Clear
8:54 PM 68.0 °F 53.1 °F 59% 29.94 in 10.0 mi WSW 3.5 mph - N/A   Clear
9:54 PM 69.1 °F 53.1 °F 57% 29.94 in 10.0 mi NNW 3.5 mph - N/A   Clear
10:54 PM 60.1 °F 53.1 °F 78% 29.94 in 10.0 mi Calm Calm - N/A   Clear
11:54 PM 57.9 °F 53.1 °F 84% 29.96 in 10.0 mi Calm Calm - N/A   Clear